Portland International Airport

Airport
ICAO code: 
KPDX
Summary
ICAO Region: 
NAM
Territory: 
Location: 
Portland, Oregon,
Coordinates: 
Aerial View: 
45° 35' 16.559" N, 122° 35' 46.756" W
Airport BS: 
Bird Strike
Metar
Observation
KPDX 212153Z 30003KT 10SM OVC020 08/03 A3061 RMK AO2 SLP364 T00780033
Station
Portland, Portland International Airport
Date/Time
2022-01-21 21:53:00
Wind direction
300°
Wind speed
03 kts
Lowest cloud amount
overcast
Temperature
7.8°C
Dew point
3.3°C
Humidity
73%
Weather condition
n/a

Description

Portland International Airport is located on the south side of the Columbia River within the current city limits of Portland in Multnomah County, six miles by air northeast of downtown Portland. Portland International Airport is often referred to by its IATA airport code, PDX.

Climatology

Oceanic/Dry-summer subtropical ”Mediterranean" climate (Köppen climate classification Csb) - characterized by warm, dry summers and mild winters.

Runways

Designator Length Width Surface Rops
3/21 2134 46 ASP Yes/Yes
10L/28R 2438 46 ASP Yes/Yes
10R/28L 3353 46 ASP Yes/Yes
Airport map: 
Aerial View: 

SKYbrary Partners:

Safety knowledge contributed by: